Back to catalog

STARLINK-2371

AliveCommunicationsVLEO
NORAD 47911·PAYLOAD·🇺🇸 United States

Launched Mar 14, 2021 from Cape Canaveral Space Force Station

Loading…

Next Passes (next 24 hours)

TLE

FreshSource: CelesTrak SupGP

Epoch: Sep 15, 2026, 02:46 UTC

1 47911C 21021BD  26258.11576389  .00069338  00000+0  21847-2 0  2581
2 47911  53.1569 119.4146 0000738  90.7561  31.0290 15.32318875    14

Track STARLINK-2371 in real time with AllMySat

Download on the App Store